Time,TemperatureF,DewpointF,PressureIn,WindDirection,WindDirectionDegrees,WindSpeedMPH,WindSpeedGustMPH,Humidity,HourlyPrecipIn,Conditions,Clouds,dailyrainin,SolarRadiationWatts/m^2,SoftwareType,DateUTC
2013-08-17 00:03:00,77.0,62.0,-100.00,ENE,76,4.0,10.0,59,0.00,,,0.00,0.000000,,2013-08-17 05:03:00,
2013-08-17 00:42:00,75.0,60.0,-100.00,ENE,75,4.0,11.0,60,0.00,,,0.00,0.000000,,2013-08-17 05:42:00,
2013-08-17 00:52:00,75.0,60.0,-100.00,ENE,75,4.0,11.0,60,0.00,,,0.00,0.000000,,2013-08-17 05:52:00,
2013-08-17 01:01:00,75.0,60.0,-100.00,ENE,75,4.0,11.0,60,0.00,,,0.00,0.000000,,2013-08-17 06:01:00,
2013-08-17 01:42:00,72.0,59.0,-100.00,ENE,71,3.0,10.0,64,0.00,,,0.00,0.000000,,2013-08-17 06:42:00,
2013-08-17 01:52:00,72.0,59.0,-100.00,ENE,71,3.0,10.0,64,0.00,,,0.00,0.000000,,2013-08-17 06:52:00,
2013-08-17 02:01:00,72.0,59.0,-100.00,ENE,71,3.0,10.0,64,0.00,,,0.00,0.000000,,2013-08-17 07:01:00,
2013-08-17 02:42:00,72.0,60.0,-100.00,ENE,65,4.0,10.0,66,0.00,,,0.00,0.000000,,2013-08-17 07:42:00,
2013-08-17 02:52:00,72.0,60.0,-100.00,ENE,65,4.0,10.0,66,0.00,,,0.00,0.000000,,2013-08-17 07:52:00,
2013-08-17 03:01:00,72.0,60.0,-100.00,ENE,65,4.0,10.0,66,0.00,,,0.00,0.000000,,2013-08-17 08:01:00,
2013-08-17 03:42:00,70.0,60.0,-100.00,ENE,71,4.0,9.0,71,0.00,,,0.00,0.000000,,2013-08-17 08:42:00,
2013-08-17 03:52:00,70.0,60.0,-100.00,ENE,71,4.0,9.0,71,0.00,,,0.00,0.000000,,2013-08-17 08:52:00,
2013-08-17 04:01:00,70.0,60.0,-100.00,ENE,71,4.0,9.0,71,0.00,,,0.00,0.000000,,2013-08-17 09:01:00,
2013-08-17 04:43:00,69.0,59.0,-100.00,NE,55,5.0,8.0,71,0.00,,,0.00,0.000000,,2013-08-17 09:43:00,
2013-08-17 04:53:00,69.0,59.0,-100.00,NE,55,5.0,8.0,71,0.00,,,0.00,0.000000,,2013-08-17 09:53:00,
2013-08-17 05:03:00,69.0,59.0,-100.00,NE,55,5.0,8.0,71,0.00,,,0.00,0.000000,,2013-08-17 10:03:00,
2013-08-17 05:42:00,66.0,58.0,-100.00,ENE,60,1.0,8.0,75,0.00,,,0.00,0.000000,,2013-08-17 10:42:00,
2013-08-17 05:53:00,66.0,58.0,-100.00,ENE,60,1.0,8.0,75,0.00,,,0.00,0.000000,,2013-08-17 10:53:00,
2013-08-17 06:02:00,66.0,58.0,-100.00,ENE,60,1.0,8.0,75,0.00,,,0.00,0.000000,,2013-08-17 11:02:00,
2013-08-17 06:42:00,66.0,60.0,-100.00,ENE,59,4.0,7.0,80,0.00,,,0.00,0.000000,,2013-08-17 11:42:00,
2013-08-17 06:52:00,66.0,60.0,-100.00,ENE,59,4.0,7.0,80,0.00,,,0.00,0.000000,,2013-08-17 11:52:00,
2013-08-17 07:01:00,66.0,60.0,-100.00,ENE,59,4.0,7.0,80,0.00,,,0.00,0.000000,,2013-08-17 12:01:00,
2013-08-17 07:42:00,66.0,59.0,-100.00,NE,54,4.0,10.0,77,0.00,,,0.00,3.000000,,2013-08-17 12:42:00,
2013-08-17 07:52:00,66.0,59.0,-100.00,NE,54,4.0,10.0,77,0.00,,,0.00,3.000000,,2013-08-17 12:52:00,
2013-08-17 08:01:00,66.0,59.0,-100.00,NE,54,4.0,10.0,77,0.00,,,0.00,3.000000,,2013-08-17 13:01:00,
2013-08-17 08:42:00,69.0,61.0,-100.00,East,96,3.0,8.0,76,0.00,,,0.00,76.000000,,2013-08-17 13:42:00,
2013-08-17 08:52:00,69.0,61.0,-100.00,East,96,3.0,8.0,76,0.00,,,0.00,76.000000,,2013-08-17 13:52:00,
2013-08-17 09:01:00,69.0,61.0,-100.00,East,96,3.0,8.0,76,0.00,,,0.00,76.000000,,2013-08-17 14:01:00,
2013-08-17 09:42:00,73.0,61.0,-100.00,NE,56,5.0,9.0,65,0.00,,,0.00,263.000000,,2013-08-17 14:42:00,
2013-08-17 09:52:00,73.0,61.0,-100.00,NE,56,5.0,9.0,65,0.00,,,0.00,263.000000,,2013-08-17 14:52:00,
2013-08-17 10:01:00,73.0,61.0,-100.00,NE,56,5.0,9.0,65,0.00,,,0.00,263.000000,,2013-08-17 15:01:00,
2013-08-17 10:44:00,78.0,60.0,-100.00,ESE,111,4.0,8.0,54,0.00,,,0.00,499.000000,,2013-08-17 15:44:00,
2013-08-17 10:53:00,78.0,60.0,-100.00,ESE,111,4.0,8.0,54,0.00,,,0.00,499.000000,,2013-08-17 15:53:00,
2013-08-17 11:03:00,78.0,60.0,-100.00,ESE,111,4.0,8.0,54,0.00,,,0.00,499.000000,,2013-08-17 16:03:00,
2013-08-17 11:42:00,81.0,59.0,-100.00,NE,34,5.0,10.0,48,0.00,,,0.00,706.000000,,2013-08-17 16:42:00,
2013-08-17 11:53:00,81.0,59.0,-100.00,NE,34,5.0,10.0,48,0.00,,,0.00,706.000000,,2013-08-17 16:53:00,
2013-08-17 12:02:00,81.0,59.0,-100.00,NE,34,5.0,10.0,48,0.00,,,0.00,706.000000,,2013-08-17 17:02:00,
2013-08-17 12:42:00,83.0,59.0,-100.00,NNW,347,6.0,10.0,45,0.00,,,0.00,854.000000,,2013-08-17 17:42:00,
2013-08-17 12:52:00,83.0,59.0,-100.00,NNW,347,6.0,10.0,45,0.00,,,0.00,854.000000,,2013-08-17 17:52:00,
2013-08-17 13:02:00,83.0,59.0,-100.00,NNW,347,6.0,10.0,45,0.00,,,0.00,854.000000,,2013-08-17 18:02:00,
2013-08-17 13:42:00,86.0,60.0,-100.00,North,359,7.0,11.0,41,0.00,,,0.00,963.000000,,2013-08-17 18:42:00,
2013-08-17 13:52:00,86.0,60.0,-100.00,North,359,7.0,11.0,41,0.00,,,0.00,963.000000,,2013-08-17 18:52:00,
2013-08-17 14:01:00,86.0,60.0,-100.00,North,359,7.0,11.0,41,0.00,,,0.00,963.000000,,2013-08-17 19:01:00,
2013-08-17 14:42:00,88.0,58.0,-100.00,NNW,345,7.0,14.0,37,0.00,,,0.00,998.000000,,2013-08-17 19:42:00,
2013-08-17 14:52:00,88.0,58.0,-100.00,NNW,345,7.0,14.0,37,0.00,,,0.00,998.000000,,2013-08-17 19:52:00,
2013-08-17 15:02:00,88.0,58.0,-100.00,NNW,345,7.0,14.0,37,0.00,,,0.00,998.000000,,2013-08-17 20:02:00,
2013-08-17 15:42:00,90.0,58.0,-100.00,NNW,345,7.0,14.0,34,0.00,,,0.00,972.000000,,2013-08-17 20:42:00,
2013-08-17 15:52:00,90.0,58.0,-100.00,NNW,345,7.0,14.0,34,0.00,,,0.00,972.000000,,2013-08-17 20:52:00,
2013-08-17 16:01:00,90.0,58.0,-100.00,NNW,345,7.0,14.0,34,0.00,,,0.00,972.000000,,2013-08-17 21:01:00,
2013-08-17 16:42:00,90.0,56.0,-100.00,NE,52,6.0,14.0,32,0.00,,,0.00,881.000000,,2013-08-17 21:42:00,
2013-08-17 16:54:00,90.0,56.0,-100.00,NE,52,6.0,14.0,32,0.00,,,0.00,881.000000,,2013-08-17 21:54:00,
2013-08-17 17:03:00,90.0,56.0,-100.00,NE,52,6.0,14.0,32,0.00,,,0.00,881.000000,,2013-08-17 22:03:00,
2013-08-17 17:42:00,90.0,57.0,-100.00,NE,56,7.0,15.0,33,0.00,,,0.00,711.000000,,2013-08-17 22:42:00,
2013-08-17 17:52:00,90.0,57.0,-100.00,NE,56,7.0,15.0,33,0.00,,,0.00,711.000000,,2013-08-17 22:52:00,
2013-08-17 18:02:00,90.0,57.0,-100.00,NE,56,7.0,15.0,33,0.00,,,0.00,711.000000,,2013-08-17 23:02:00,
2013-08-17 18:42:00,89.0,55.0,-100.00,NE,45,8.0,15.0,32,0.00,,,0.00,493.000000,,2013-08-17 23:42:00,
2013-08-17 18:52:00,89.0,55.0,-100.00,NE,45,8.0,15.0,32,0.00,,,0.00,493.000000,,2013-08-17 23:52:00,
2013-08-17 19:01:00,89.0,55.0,-100.00,NE,45,8.0,15.0,32,0.00,,,0.00,493.000000,,2013-08-18 00:01:00,
2013-08-17 19:42:00,87.0,54.0,-100.00,NE,49,8.0,14.0,32,0.00,,,0.00,295.000000,,2013-08-18 00:42:00,
2013-08-17 19:52:00,87.0,54.0,-100.00,NE,49,8.0,14.0,32,0.00,,,0.00,295.000000,,2013-08-18 00:52:00,
2013-08-17 20:01:00,87.0,54.0,-100.00,NE,49,8.0,14.0,32,0.00,,,0.00,295.000000,,2013-08-18 01:01:00,
2013-08-17 20:42:00,83.0,54.0,-100.00,ENE,60,2.0,12.0,37,0.00,,,0.00,73.000000,,2013-08-18 01:42:00,
2013-08-17 20:52:00,83.0,54.0,-100.00,ENE,60,2.0,12.0,37,0.00,,,0.00,73.000000,,2013-08-18 01:52:00,
2013-08-17 21:02:00,83.0,54.0,-100.00,ENE,60,2.0,12.0,37,0.00,,,0.00,73.000000,,2013-08-18 02:02:00,
2013-08-17 21:52:00,76.0,57.0,-100.00,ESE,105,1.0,4.0,52,0.00,,,0.00,1.000000,,2013-08-18 02:52:00,
2013-08-17 22:02:00,76.0,57.0,-100.00,ESE,105,1.0,4.0,52,0.00,,,0.00,1.000000,,2013-08-18 03:02:00,
2013-08-17 23:03:00,-999.0,-99.9,-100.00,ESE,103,1.0,5.0,-999,0.00,,,0.00,0.000000,,2013-08-18 04:03:00,
2013-08-17 23:42:00,73.0,58.0,-100.00,SE,141,1.0,5.0,59,-99.99,,,0.00,0.000000,,2013-08-18 04:42:00,
2013-08-17 23:53:00,73.0,58.0,-100.00,SE,141,1.0,5.0,59,-99.99,,,0.00,0.000000,,2013-08-18 04:53:00,